N312CL KJWN-KBEC

Flight info

Callsign N312CL
Flight time N/A
Altitude 18000
Route DEPEC Q36 RZC J182 BURDN
Aircraft BT36/L-BDFGLORY/S

Departure

Time 2026-04-21 17:36
Airport John C Tune Airport (KJWN)

Arrival

Time N/A
Airport Beech Factory Airport (KBEC)
Time Latitude Longitude Altitude Speed Heading
2026-04-21 17:24 36.17804 -86.88311 478 ft 0 kts 98°
2026-04-21 17:32 36.17803 -86.88308 478 ft 2 kts 109°
2026-04-21 17:32 36.17821 -86.88299 477 ft 8 kts 315°
2026-04-21 17:32 36.17869 -86.88358 476 ft 11 kts 317°
2026-04-21 17:33 36.17931 -86.88440 475 ft 8 kts 307°
2026-04-21 17:33 36.17988 -86.88500 475 ft 14 kts 314°
2026-04-21 17:33 36.18021 -86.88587 477 ft 9 kts 308°
2026-04-21 17:33 36.18099 -86.88579 480 ft 15 kts 14°
2026-04-21 17:34 36.18220 -86.88541 483 ft 21 kts 14°
2026-04-21 17:34 36.18370 -86.88491 489 ft 22 kts 14°
2026-04-21 17:34 36.18531 -86.88437 495 ft 26 kts 19°
2026-04-21 17:34 36.18712 -86.88379 503 ft 28 kts 13°
2026-04-21 17:35 36.18787 -86.88359 507 ft 2 kts 345°
2026-04-21 17:35 36.18805 -86.88381 508 ft 3 kts 286°
2026-04-21 17:35 36.18813 -86.88418 509 ft 7 kts 284°
2026-04-21 17:35 36.18815 -86.88482 509 ft 7 kts 209°
2026-04-21 17:36 36.18762 -86.88503 506 ft 26 kts 195°
2026-04-21 17:36 36.18325 -86.88643 497 ft 97 kts 196°
2026-04-21 17:36 36.17603 -86.88852 825 ft 106 kts 198°
2026-04-21 17:36 36.16849 -86.89090 1184 ft 119 kts 194°
2026-04-21 17:37 36.16015 -86.89292 1584 ft 121 kts 191°
2026-04-21 17:37 36.15168 -86.89435 2036 ft 128 kts 189°
2026-04-21 17:37 36.14262 -86.89622 2466 ft 130 kts 193°
2026-04-21 17:37 36.13385 -86.89816 3020 ft 127 kts 190°
2026-04-21 17:38 36.12515 -86.89994 3489 ft 130 kts 192°
2026-04-21 17:38 36.11629 -86.90178 3955 ft 125 kts 194°
2026-04-21 17:38 36.10771 -86.90367 4368 ft 129 kts 192°
2026-04-21 17:38 36.09854 -86.90457 4757 ft 134 kts 190°
2026-04-21 17:39 36.08917 -86.90561 5130 ft 137 kts 191°
2026-04-21 17:39 36.07947 -86.90660 5490 ft 141 kts 191°
2026-04-21 17:39 36.06950 -86.90754 5845 ft 146 kts 190°
2026-04-21 17:39 36.06049 -86.91162 6197 ft 135 kts 232°
2026-04-21 17:40 36.05840 -86.92190 6564 ft 125 kts 278°
2026-04-21 17:40 36.06087 -86.93200 6910 ft 122 kts 284°
2026-04-21 17:40 36.06222 -86.94230 7240 ft 121 kts 276°
2026-04-21 17:40 36.06324 -86.95278 7587 ft 124 kts 274°
2026-04-21 17:41 36.06410 -86.96325 7923 ft 122 kts 274°
2026-04-21 17:41 36.06487 -86.97367 8267 ft 122 kts 274°
2026-04-21 17:41 36.06560 -86.98408 8616 ft 124 kts 274°
2026-04-21 17:41 36.06630 -86.99483 8969 ft 126 kts 274°
2026-04-21 17:42 36.06705 -87.00564 9322 ft 126 kts 274°
2026-04-21 17:42 36.06775 -87.01635 9683 ft 124 kts 273°
2026-04-21 17:42 36.06846 -87.02699 10046 ft 124 kts 273°
2026-04-21 17:42 36.06916 -87.03761 10385 ft 125 kts 274°
2026-04-21 17:43 36.06987 -87.04818 10715 ft 125 kts 274°
2026-04-21 17:43 36.07057 -87.05887 11051 ft 125 kts 274°
2026-04-21 17:43 36.07129 -87.06959 11391 ft 125 kts 275°
2026-04-21 17:43 36.07199 -87.08031 11735 ft 125 kts 275°
2026-04-21 17:44 36.07269 -87.09098 12077 ft 124 kts 275°
2026-04-21 17:44 36.07339 -87.10162 12428 ft 124 kts 275°
2026-04-21 17:44 36.07409 -87.11228 12779 ft 124 kts 275°
2026-04-21 17:44 36.07480 -87.12293 13138 ft 124 kts 275°
2026-04-21 17:45 36.07549 -87.13361 13504 ft 124 kts 275°
2026-04-21 17:45 36.07619 -87.14427 13868 ft 124 kts 276°
2026-04-21 17:45 36.07689 -87.15492 14220 ft 124 kts 276°
2026-04-21 17:45 36.07758 -87.16556 14548 ft 125 kts 276°
2026-04-21 17:46 36.07829 -87.17631 14873 ft 125 kts 276°
2026-04-21 17:46 36.07898 -87.18705 15206 ft 125 kts 276°
2026-04-21 17:46 36.07967 -87.19762 15541 ft 125 kts 276°
2026-04-21 17:46 36.08037 -87.20829 15881 ft 124 kts 276°
2026-04-21 17:47 36.08105 -87.21895 16219 ft 124 kts 276°
2026-04-21 17:47 36.08174 -87.22956 16569 ft 123 kts 276°
2026-04-21 17:47 36.08242 -87.24012 16920 ft 123 kts 276°
2026-04-21 17:47 36.08311 -87.25063 17274 ft 122 kts 276°
2026-04-21 17:48 36.08354 -87.25757 17512 ft 122 kts 276°
2026-04-21 17:48 36.08446 -87.27155 17984 ft 123 kts 276°
2026-04-21 17:48 36.08523 -87.28298 18023 ft 144 kts 276°
2026-04-21 17:48 36.08610 -87.29610 18024 ft 161 kts 276°
2026-04-21 17:49 36.08700 -87.31029 18022 ft 173 kts 276°
2026-04-21 17:49 36.08796 -87.32553 18018 ft 182 kts 276°
2026-04-21 17:49 36.08896 -87.34137 18015 ft 188 kts 275°